Regional Weather Roundup
Issued by NWS Memphis, TN

Home | Current Version | Previous Version | Text Only | Print | Product List | Glossary On
Versions: 1 2 3 4 5 6 7 8 9 10 11 12 13 14 15 16 17 18 19 20 21 22 23 24 25 26 27 28 29 30 31 32 33 34 35 36 37 38 39 40 41 42 43 44 45 46 47 48 49 50
993
ASUS44 KMEG 121310
RWRMEG
MEMPHIS CWA HOURLY WEATHER ROUNDUP
NATIONAL WEATHER SERVICE MEMPHIS TN
700 AM CST FRI FEB 12 2016

...WEST TENNESSEE...

CITY           SKY/WX    TMP DP  RH WIND       PRES   REMARKS
MEMPHIS INTL   PTCLDY    33  24  69 N5        30.19R WCI  29
NWS MEMPHIS      N/A     29 N/A N/A MISG        N/A
JACKSON        CLEAR     30  23  75 CALM      30.19R
LEXINGTON      PTCLDY    28  21  74 CALM      30.16R
DYERSBURG      CLEAR     28  21  74 CALM      30.22R
UNION CITY     MOCLDY    28  21  74 CALM      30.19R
PARIS          CLOUDY    28  19  69 CALM      30.18R


...EASTERN ARKANSAS...

CITY           SKY/WX    TMP DP  RH WIND       PRES   REMARKS
JONESBORO      CLEAR     29  25  85 N3        30.22R
WEST MEMPHIS   CLEAR     30  27  88 N3        30.20R
BATESVILLE     CLEAR     27  21  80 CALM      30.23R
NEWPORT        CLEAR     27  24  88 N6        30.24R WCI  21
WALNUT RIDGE   CLEAR     27  19  74 NE6       30.23R WCI  20
BLYTHEVILLE    CLEAR     29  24  82 N5        30.21R WCI  24
SEARCY         CLEAR     27  25  93 CALM      30.24R
STUTTGART      CLEAR     30  25  80 NW6       30.22R WCI  24
PINE BLUFF     CLEAR     31  26  82 NW3       30.23R
MONTICELLO     CLEAR     33  27  78 CALM      30.21R


...NORTH MISSISSIPPI...

CITY           SKY/WX    TMP DP  RH WIND       PRES   REMARKS
TUPELO         CLEAR     31  25  78 CALM      30.17R
OXFORD         CLEAR     27  25  93 CALM      30.19S
OLIVE BRANCH   PTCLDY    28  28 100 N5        30.19R WCI  23
TUNICA         CLEAR     30  27  86 NW3       30.21R
CORINTH        CLEAR     32  27  80 CALM      30.17S
GREENWOOD      CLEAR     33  29  85 CALM      30.19R
COLUMBUS       CLEAR     32  27  83 CALM      30.16R
STARKVILLE     FAIR      32  30  93 CALM      30.17R
GOLDEN TRIANGL CLEAR     34  25  69 N6        30.15S WCI  29


...SOUTHEAST MISSOURI...

CITY           SKY/WX    TMP DP  RH WIND       PRES   REMARKS
WEST PLAINS    PTCLDY    23  18  81 CALM      30.20R
POPLAR BLUFF   CLOUDY    31  23  72 N3        30.21S
CAPE GIRARDEAU CLOUDY    29  25  85 N7        30.23R WCI  22


...NORTHWEST ALABAMA...

CITY           SKY/WX    TMP DP  RH WIND       PRES   REMARKS
MUSCLE SHOALS  MOCLDY    34  28  79 CALM      30.17S


...MIDDLE TENNESSEE...

CITY           SKY/WX    TMP DP  RH WIND       PRES   REMARKS
NASHVILLE      CLOUDY    34  22  61 CALM      30.19S
CLARKSVILLE    CLOUDY    29  24  82 N5        30.20R WCI  24
COLUMBIA       CLEAR     32  28  86 CALM      30.14F


...WESTERN KENTUCKY...

CITY           SKY/WX    TMP DP  RH WIND       PRES   REMARKS
PADUCAH        CLOUDY    29  24  82 NE6       30.21R WCI  23
FORT CAMPBELL  CLOUDY    28  24  85 NE3       30.19R


...CENTRAL ARKANSAS...

CITY           SKY/WX    TMP DP  RH WIND       PRES   REMARKS
LITTLE ROCK    PTCLDY    33  26  75 CALM      30.23R


SKY/WX REPORTED AS FAIR MEANS FEW OR NO CLOUDS BELOW
12 THOUSAND FEET.





USA.gov is the U.S. government's official web portal to all federal, state and local government web resources and services.